#timestamp,LO_Frequency,Hit,StdDev 
1505055615.6,286046998.9,N,1.2
1505055635.5,286046999.4,N,1.1
1505055655.3,286046996.6,Y,0.0
1505055675.2,286046998.7,P,0.3
1505055695.9,286046999.2,N,0.3
1505055715.7,286046999.1,P,0.3
1505055735.6,286046996.5,Y,0.0
1505055755.4,286046999.2,P,0.1
1505055775.2,286046999.1,P,0.0
1505055795.1,286046999.2,P,0.1
1505055796.0,286046999.2,Y,0.0
1505055815.8,286046999.4,P,0.1
1505055835.7,286046999.2,P,0.1
1505055855.5,286046999.4,P,0.1
1505055875.4,286046999.4,Y,0.0
1505055895.2,286046998.5,P,0.4
1505055915.0,286046998.1,P,0.5
1505055915.9,286046998.1,P,0.5
1505055935.8,286046998.2,Y,0.0
1505055955.6,286047000.4,P,1.0
1505055975.4,286047001.1,N,1.1
1505055995.3,286047001.1,N,1.1
1505056015.1,286046998.3,N,1.2
1505056035.9,286047001.2,N,1.2
1505056055.7,286047001.0,N,1.2
1505056075.5,286047000.6,N,1.1
1505056095.4,286047001.2,N,1.1
1505056115.2,286047000.5,N,1.0
1505056135.1,286047001.2,N,1.0
1505056136.0,286047001.2,N,1.0
1505056155.8,286046998.3,N,1.1
1505056175.6,286046999.3,N,1.1
1505056195.5,286046998.9,N,1.1
1505056215.3,286046998.5,N,1.2
1505056235.2,286046996.6,N,1.4
1505056255.9,286046999.1,N,1.4
1505056275.7,286046996.5,N,1.5
1505056295.6,286046999.1,N,1.5
1505056315.4,286046999.1,N,1.5
1505056335.2,286046996.7,N,1.6
1505056355.1,286046997.8,N,1.6
1505056356.0,286682703.3,Y,0.0
1505056375.8,286046997.0,P,1.2
1505056395.7,286046996.6,N,1.2
1505056415.5,286046999.6,N,1.4
1505056435.3,286046997.3,N,1.3
1505056455.2,286046997.0,N,1.2
1505056475.0,286046996.5,N,1.2
1505056475.9,286046996.5,N,1.2
1505056495.8,286046999.6,N,1.3
1505056515.6,286046999.0,N,1.3
1505056535.4,286046996.5,N,1.3
1505056555.3,286046996.9,N,1.3
1505056575.1,286046999.6,N,1.3
1505056595.9,286046999.5,N,1.3
1505056615.7,286046998.1,N,1.3
1505056635.5,286046999.1,N,1.3
1505056655.4,286046996.9,N,1.3
1505056675.2,286046997.3,N,1.2
1505056695.0,286046997.1,N,1.2
1505056695.9,286046997.1,N,1.2
1505056715.8,286046997.5,N,1.2
1505056735.6,286046997.7,N,1.2
1505056755.5,286046995.3,Y,0.0
1505056775.3,286046998.4,P,0.3
1505056795.1,286047001.2,P,1.5
1505056815.9,286046998.8,N,1.3
1505056835.7,286046999.4,N,1.2
1505056855.6,286047000.8,N,1.2
1505056875.4,286046998.9,N,1.2
1505056895.2,286046998.2,N,1.1
1505056915.1,286046998.1,N,1.1
1505056916.0,286046998.1,N,1.1
1505056935.8,286047000.5,N,1.1
1505056955.7,286046998.2,N,1.1
1505056975.5,286047000.9,N,1.2
1505056995.3,286046998.2,N,1.2
1505057015.2,286046998.5,N,1.1
1505057035.0,286046998.3,N,1.1
1505057035.9,286046998.3,N,1.1
1505057055.8,286046998.7,N,1.1
1505057075.6,286046999.3,N,1.0
1505057095.4,286047001.2,N,1.1
1505057115.3,286046999.4,N,1.1
1505057135.1,286046999.3,N,1.1
1505057155.8,286046998.7,N,1.1
1505057175.7,286046999.3,N,1.0
1505057195.5,286046998.9,N,1.0
1505057215.4,286047001.2,N,1.1
1505057235.2,286046998.5,N,1.1
1505057255.0,286047000.8,N,1.1
1505057255.9,286047000.8,N,1.1
1505057275.8,286046998.5,N,1.1
1505057295.6,286046998.6,N,1.1
1505057315.5,286046998.4,N,1.1
1505057335.3,286046998.8,N,1.0
1505057355.1,286047000.3,N,1.0
1505057375.9,286047002.6,N,1.2
1505057395.7,286047002.0,N,1.3
1505057415.6,286047004.3,Y,0.0
1505057435.4,286047003.5,P,2.1
1505057455.2,286047004.1,N,2.1
1505057475.1,286047003.8,N,1.9
1505057476.0,286047003.8,N,1.8
1505057495.8,286047004.0,N,1.7
1505057515.6,286047001.6,N,1.6
1505057535.5,286047003.9,N,1.6
1505057555.3,286047004.4,N,1.5
1505057575.2,286047003.2,N,1.5
1505057595.9,286047003.2,N,1.4
1505057615.7,286047003.5,N,1.3
1505057635.6,286047003.8,N,1.3
1505057655.4,286047004.3,Y,0.0
1505057675.3,286047001.0,P,1.1
1505057695.1,286047000.0,N,1.4
1505057696.0,286047000.0,N,1.3
1505057715.8,286046998.9,N,1.5
1505057735.7,286047001.2,N,1.4
1505057755.5,286046999.2,N,1.4
1505057775.3,286046999.0,N,1.4
1505057795.2,286046998.9,N,1.4
1505057815.0,286046998.6,N,1.4
1505057815.9,286046998.6,N,1.4
1505057835.8,286046998.6,N,1.4
1505057855.6,286047000.9,N,1.3
1505057875.4,286047002.2,N,1.4
1505057895.3,286046999.8,N,1.4
1505057915.1,286047000.1,N,1.3
1505057935.9,286047002.1,N,1.4
1505057955.7,286046999.9,N,1.3
1505057975.5,286047000.1,N,1.3
1505057995.4,286046999.7,N,1.3
1505058015.2,286046999.7,N,1.3
1505058035.1,286047002.4,N,1.3
1505058036.0,286047002.4,N,1.4
1505058055.8,286047002.6,N,1.4
1505058075.6,286047001.6,N,1.4
1505058095.5,286047001.9,N,1.4
1505058115.3,286047004.2,N,1.5
1505058135.1,286047003.3,N,1.6
1505058155.9,286047003.8,N,1.7
1505058175.7,286047004.4,N,1.8
1505058195.6,286047001.7,N,1.7
1505058215.4,286047001.5,N,1.7
1505058235.2,286047004.3,N,1.8
1505058255.1,286047004.4,N,1.9
1505058256.0,286047004.4,N,1.9
1505058275.8,286047002.1,N,1.9
1505058295.7,286047001.7,N,1.9
1505058315.5,286047001.4,N,1.8
1505058335.3,286047003.8,N,1.8
1505058355.2,286047001.3,N,1.7
1505058375.0,286047001.4,N,1.6
1505058375.9,286047001.4,N,1.5
1505058395.7,286047001.7,N,1.5
1505058415.6,286047004.3,N,1.5
1505058435.4,286047004.2,N,1.5
1505058455.3,286047003.9,N,1.5
1505058475.1,286047004.0,N,1.5
1505058476.0,286047004.0,N,1.5
1505058495.8,286047001.8,N,1.4
1505058515.7,286047001.7,N,1.3
1505058535.5,286047004.2,Y,0.0
1505058555.4,286047002.3,P,0.2
1505058575.2,286047000.4,N,1.0
1505058595.0,286047000.9,N,1.0
1505058595.9,286047000.9,N,0.9
1505058615.8,286047000.2,N,0.9
1505058635.6,286047000.3,N,0.9
1505058655.5,286047000.3,N,0.9
1505058675.3,286046999.7,N,0.9
1505058695.1,286047002.4,N,1.0
1505058715.9,286047001.8,N,1.0
1505058735.7,286047002.5,N,1.0
1505058755.6,286047001.5,N,1.0
1505058775.4,286047002.1,N,1.0
1505058795.2,286047002.1,N,1.0
1505058815.1,286047001.5,N,0.9
1505058816.0,286047001.5,N,0.9
1505058835.8,286046999.7,N,1.0
1505058855.6,286047002.8,N,1.0
1505058875.5,286047001.9,N,1.0
1505058895.3,286047001.3,N,1.0
1505058915.2,286047001.9,N,0.9
1505058935.9,286047004.4,Y,0.0
1505058955.7,286682708.0,P,317853.3
1505058975.6,286047002.0,N,299674.9
1505058995.4,286047004.0,N,275268.6
1505059015.3,286047001.3,N,254282.4
1505059035.1,286047003.9,N,236913.5
1505059036.0,286047003.9,N,222450.5
1505059055.8,286047004.1,N,210239.7
1505059075.7,286047004.4,N,199782.8
1505059095.5,286047001.5,N,190711.5
1505059115.4,286047001.3,N,182752.4
1505059135.2,286047001.4,N,175699.7
1505059155.0,286047002.6,N,169396.0
1505059155.9,286047002.6,N,163719.2
1505059175.8,286047002.2,N,158572.8
1505059195.6,286047002.5,N,153879.8
